[[{"header":{"parameterUnit":"m.s-1","parameterCategory":1,"la1":30.2991,"la2":30.254,"lo1":-89.0895,"lo2":-89.0444,"dy":0.0017,"dx":0.0017,"nx":28,"ny":28,"refTime":"2024-08-03T21:00:00:Z","depth":0,"parameterNumber":2,"parameterNumberName":"U-component_of_WINDS"},"data":[0,0,0,0,0,0,0,0,0,0,0,0,0,0,0,0,0,0,0,0,0,0,0,0,0,0,0,0,0,0,0,0,0,0,0,0,0,0,0,0,0,0,0,0,0,0,0,0,0,0,0,0,0,0,0,0,0,0,-2.8179,-2.818,0,-2.8237,-2.8238,-2.8239,-2.8195,-2.8193,-2.8191,-2.8189,-2.8253,-2.8256,-2.826,0,0,0,0,0,0,0,0,0,0,0,0,0,-2.8033,-2.8036,-2.8179,-2.818,-2.818,-2.8237,-2.8238,-2.8239,-2.8195,-2.8193,-2.8191,-2.8189,-2.8252,-2.8256,-2.826,0,0,0,0,0,0,0,0,0,0,0,0,0,-2.8095,-2.8037,-2.8179,-2.8165,-2.8165,-2.8237,-2.8238,-2.8239,-2.8196,-2.8193,-2.819,-2.8188,-2.825,-2.8255,-2.8261,-2.835,0,0,-2.8276,-2.8279,0,0,0,0,0,0,0,0,-2.8091,-2.81,-2.8167,-2.8167,-2.8166,-2.8206,-2.821,-2.8276,-2.8197,-2.8184,-2.8189,-2.8186,-2.824,-2.8246,-2.8263,-2.8353,-2.8356,-2.8277,-2.828,-2.8282,-2.8284,0,0,0,0,0,0,0,-2.8087,-2.8097,-2.8202,-2.8168,-2.8167,-2.8158,-2.8163,-2.8222,-2.8228,-2.8185,-2.8182,-2.8189,-2.8239,-2.8258,-2.8264,-2.8357,-2.8277,-2.8281,-2.8285,-2.8287,-2.8524,-2.8527,0,0,0,0,0,0,-2.8084,-2.8094,-2.82,-2.8204,-2.8121,-2.8163,-2.8169,-2.8196,-2.8227,-2.8229,-2.8192,-2.8187,-2.8251,-2.8258,-2.8266,-2.8374,-2.8282,-2.8287,-2.829,-2.8521,-2.8525,-2.8528,0,0,0,0,0,0,-2.8081,-2.8093,-2.8198,-2.8148,-2.8161,-2.8168,-2.8199,-2.8199,-2.8218,-2.8232,-2.8233,-2.821,-2.8249,-2.8259,-2.833,-2.8375,-2.8289,-2.8294,-2.8517,-2.8522,-2.8527,-2.8589,0,0,0,0,0,0,-2.8077,-2.8093,-2.8126,-2.8149,-2.8163,-2.8259,-2.8202,-2.8202,-2.8226,-2.8221,-2.8249,-2.8251,-2.8247,-2.8322,-2.8335,-2.8381,-2.8298,-2.8513,-2.8519,-2.8525,-2.8583,-2.8596,-2.8606,0,0,0,0,0,-2.8072,-2.8142,-2.8128,-2.8141,-2.8205,-2.8262,-2.827,-2.8263,-2.823,-2.8264,-2.8273,-2.825,-2.8368,-2.833,-2.8344,-2.8392,-2.851,-2.8518,-2.8525,-2.8578,-2.8593,-2.8606,0,0,0,0,0,0,-2.8125,-2.8145,-2.8129,-2.8209,-2.8234,-2.8255,-2.8297,-2.828,-2.8315,-2.8309,-2.83,-2.8307,-2.8381,-2.8393,-2.835,-2.8481,-2.8434,-2.8444,-2.847,-2.8485,-2.8496,-2.8492,-2.8303,0,0,0,0,0,-2.8146,-2.8189,-2.8205,-2.8274,-2.8287,-2.829,-2.8315,-2.8307,-2.8333,-2.8344,-2.8358,-2.8385,-2.8428,-2.8457,-2.8497,-2.8585,-2.8591,-2.8625,-2.8637,-2.8646,-2.8655,-2.8704,-2.8719,-2.8552,-2.8552,-2.8552,0,0,-2.819,-2.8206,-2.8234,-2.8285,-2.8303,-2.835,-2.8299,-2.835,-2.8385,-2.8352,-2.8419,-2.8431,-2.846,-2.854,-2.8576,-2.8553,-2.8703,-2.8655,-2.8663,-2.8667,-2.8713,-2.8729,-2.8743,-2.8557,-2.8556,-2.8555,0,0,-2.8294,-2.831,-2.8369,-2.8389,-2.8417,-2.8419,-2.8433,-2.8456,-2.8462,-2.8529,-2.8506,-2.8547,-2.8622,-2.8644,-2.8665,-2.8778,-2.8759,-2.8791,-2.8852,-2.8899,-2.8913,-2.8924,-2.8966,-2.8981,-2.8801,-2.8801,-2.8801,0,-2.8346,-2.8413,-2.8403,-2.8456,-2.8479,-2.845,-2.8511,-2.853,-2.8571,-2.8588,-2.8562,-2.8655,-2.8673,-2.8757,-2.8785,-2.8803,-2.882,-2.8789,-2.8911,-2.8923,-2.8934,-2.8973,-2.8989,-2.8805,-2.8804,-2.8804,-2.8803,0,-2.8476,-2.8523,-2.8568,-2.8607,-2.8635,-2.8692,-2.8691,-2.8722,-2.8711,-2.8716,-2.8786,-2.8806,-2.8851,-2.887,-2.8861,-2.8954,-2.8939,-2.8912,-2.8865,-2.8954,-2.8991,-2.9006,-2.881,-2.8809,-2.8808,-2.8807,0,0,-2.8616,-2.8648,-2.8665,-2.8682,-2.8711,-2.8748,-2.8804,-2.8846,-2.8873,-2.8902,-2.895,-2.9013,-2.8988,-2.9012,-2.9006,-2.9047,-2.9136,-2.9015,-2.9016,-2.9038,-2.9242,-2.9263,-2.928,-2.9123,-2.9126,-2.9128,-2.924,0,-2.8722,-2.8818,-2.881,-2.8902,-2.8946,-2.8919,-2.8968,-2.8992,-2.8998,-2.9037,-2.9044,-2.909,-2.9053,-2.9068,-2.9107,-2.9117,-2.9177,-2.9109,-2.9169,-2.9171,-2.9163,-2.9299,-2.9322,-2.9426,-2.9254,-2.9256,-2.9258,0,-2.8859,-2.8892,-2.8988,-2.901,-2.9029,-2.9072,-2.9111,-2.9148,-2.9175,-2.9177,-2.9204,-2.919,-2.9248,-2.9199,-2.9279,-2.9233,-2.9257,-2.9266,-2.9269,-2.9276,-2.9221,-2.9311,-2.9459,-2.9475,-2.928,-2.9279,-2.9277,0,-2.8953,-2.9021,-2.9087,-2.9103,-2.9131,-2.9163,-2.9176,-2.92,-2.9226,-2.926,-2.9277,-2.9318,-2.934,-2.9373,-2.9371,-2.9335,-2.9453,-2.9404,-2.9458,-2.9458,-2.9485,-2.9483,-2.964,-2.9498,-2.9498,-2.9498,-2.9498,0,-2.9073,-2.9133,-2.913,-2.9171,-2.9238,-2.9228,-2.9295,-2.9305,-2.9326,-2.937,-2.9349,-2.939,-2.9385,-2.9427,-2.9426,-2.9493,-2.9504,-2.9508,-2.9507,-2.951,-2.951,-2.9527,-2.952,-2.9502,-2.9501,-2.95,-2.95,0,-2.919,-2.919,-2.9261,-2.9281,-2.9287,-2.9336,-2.9354,-2.9393,-2.9397,-2.9452,-2.9465,-2.9472,-2.952,-2.9521,-2.9577,-2.9577,-2.9659,-2.965,-2.965,-2.9649,-2.9703,-2.9698,-2.9877,-2.9901,-2.9743,-2.9744,-2.9745,0,-2.9267,-2.9313,-2.9337,-2.9364,-2.9379,-2.9423,-2.9449,-2.9442,-2.9471,-2.9505,-2.9541,-2.9586,-2.9623,-2.9702,-2.9713,-2.9756,-2.9748,-2.9808,-2.9755,-2.9757,-2.9751,-2.9749,-2.9754,-2.9819,-2.9821,-2.9822,-2.9823,0,-2.9405,-2.9403,-2.944,-2.9479,-2.9511,-2.9541,-2.9569,-2.9592,-2.9589,-2.9622,-2.967,-2.9699,-2.9755,-2.9802,-2.9844,-2.9859,-2.9842,-2.984,-2.9855,-2.9859,-2.9858,-2.986,-2.968,-2.9836,-2.9835,-2.9834,-2.9833,-2.9832,-2.9505,-2.9544,-2.9568,-2.9611,-2.9631,-2.9658,-2.9696,-2.9704,-2.9744,-2.9789,-2.9782,-2.9837,-2.9864,-2.9917,-2.9936,-2.998,-2.9959,-2.9981,-2.9986,-2.9992,-2.9999,-2.985,-2.9987,-2.9987,-2.9986,-2.9986,-2.9986,0,-2.9642,-2.9656,-2.9696,-2.9735,-2.9769,-2.9748,-2.9778,-2.9809,-2.9856,-2.9882,-2.9918,-2.9975,-3.002,-3.0034,-3.0079,-3.0111,-3.0104,-3.0123,-3.0121,-3.0125,-3.0014,-2.9997,-3.0128,-3.0128,-3.0128,-3.0128,-3.0128,-3.0128,-2.9718,-2.9783,-2.9784,-2.986,-2.9873,-2.9925,-2.9944,-2.9969,-2.999,-3.0053,-3.009,-3.0099,-3.0121,-3.0166,-3.0207,-3.021,-3.0228,-3.0251,-3.0251,-3.0147,-3.0133,-3.0119,-3.0103,-3.0255,-3.0255,-3.0359,-3.036,-3.0361]},{"header":{"parameterUnit":"m.s-1","parameterCategory":1,"la1":30.2991,"la2":30.254,"lo1":-89.0895,"lo2":-89.0444,"dy":0.0017,"dx":0.0017,"nx":28,"ny":28,"refTime":"2024-08-03T21:00:00:Z","depth":0,"parameterNumber":3,"parameterNumberName":"V-component_of_WINDS"},"data":[0,0,0,0,0,0,0,0,0,0,0,0,0,0,0,0,0,0,0,0,0,0,0,0,0,0,0,0,0,0,0,0,0,0,0,0,0,0,0,0,0,0,0,0,0,0,0,0,0,0,0,0,0,0,0,0,0,0,-2.731,-2.7309,0,-2.7275,-2.7275,-2.7274,-2.7211,-2.721,-2.7209,-2.7207,-2.7173,-2.7173,-2.7173,0,0,0,0,0,0,0,0,0,0,0,0,0,-2.7322,-2.7322,-2.731,-2.7309,-2.7309,-2.7275,-2.7275,-2.7274,-2.7211,-2.721,-2.7208,-2.7207,-2.7173,-2.7173,-2.7173,0,0,0,0,0,0,0,0,0,0,0,0,0,-2.7305,-2.7322,-2.731,-2.7273,-2.727,-2.7275,-2.7275,-2.7274,-2.7212,-2.721,-2.7208,-2.7206,-2.7173,-2.7173,-2.7174,-2.7212,0,0,-2.7175,-2.7175,0,0,0,0,0,0,0,0,-2.7306,-2.7305,-2.7279,-2.7276,-2.7272,-2.7245,-2.7266,-2.7253,-2.7212,-2.7234,-2.7207,-2.7205,-2.7199,-2.7197,-2.7194,-2.7211,-2.7209,-2.7175,-2.7175,-2.7175,-2.7175,0,0,0,0,0,0,0,-2.7307,-2.7306,-2.7296,-2.7279,-2.7274,-2.7259,-2.7254,-2.7264,-2.7227,-2.7232,-2.7227,-2.7224,-2.7196,-2.7194,-2.7193,-2.7209,-2.7175,-2.7175,-2.7175,-2.7175,-2.7254,-2.7256,0,0,0,0,0,0,-2.7314,-2.7307,-2.7297,-2.7295,-2.7285,-2.726,-2.7255,-2.7256,-2.7227,-2.722,-2.7225,-2.7221,-2.7194,-2.7193,-2.7192,-2.7235,-2.7175,-2.7175,-2.7175,-2.7252,-2.7254,-2.7257,0,0,0,0,0,0,-2.7314,-2.7313,-2.7299,-2.73,-2.7297,-2.7262,-2.7263,-2.7256,-2.7254,-2.7222,-2.7215,-2.723,-2.7193,-2.7191,-2.7207,-2.7233,-2.7175,-2.7176,-2.725,-2.7253,-2.7256,-2.7321,0,0,0,0,0,0,-2.7315,-2.7314,-2.7328,-2.7301,-2.7297,-2.7315,-2.7265,-2.7257,-2.7254,-2.7248,-2.7224,-2.7218,-2.7191,-2.7207,-2.7208,-2.7232,-2.7176,-2.7248,-2.7251,-2.7255,-2.7317,-2.7326,-2.7334,0,0,0,0,0,-2.7315,-2.7348,-2.7329,-2.7328,-2.7314,-2.7317,-2.7314,-2.7282,-2.7257,-2.7271,-2.725,-2.7219,-2.723,-2.7209,-2.7209,-2.7234,-2.7246,-2.725,-2.7254,-2.7313,-2.7324,-2.7334,0,0,0,0,0,0,-2.7381,-2.7344,-2.7323,-2.7348,-2.7336,-2.7306,-2.7323,-2.7296,-2.7291,-2.7285,-2.7246,-2.7241,-2.7262,-2.725,-2.7228,-2.727,-2.7233,-2.7237,-2.7277,-2.7288,-2.7296,-2.7299,-2.7176,0,0,0,0,0,-2.7398,-2.7403,-2.7371,-2.7396,-2.7391,-2.7358,-2.7358,-2.7334,-2.732,-2.7315,-2.7295,-2.7284,-2.7284,-2.7285,-2.7284,-2.7314,-2.7308,-2.7331,-2.734,-2.7347,-2.7352,-2.7367,-2.7377,-2.7271,-2.7271,-2.727,0,0,-2.7434,-2.7414,-2.742,-2.7409,-2.7396,-2.7403,-2.7354,-2.7363,-2.7367,-2.7316,-2.733,-2.7316,-2.7299,-2.7323,-2.7332,-2.7313,-2.738,-2.7353,-2.7359,-2.7359,-2.7372,-2.7382,-2.7391,-2.7273,-2.7273,-2.7272,0,0,-2.7502,-2.7488,-2.7507,-2.7496,-2.7478,-2.7456,-2.746,-2.7434,-2.7423,-2.7436,-2.7398,-2.7402,-2.7404,-2.7394,-2.7389,-2.7453,-2.7424,-2.7453,-2.7499,-2.7514,-2.7522,-2.753,-2.7552,-2.7561,-2.7458,-2.7458,-2.7458,0,-2.7549,-2.7556,-2.7521,-2.7531,-2.7528,-2.7481,-2.7501,-2.7491,-2.7474,-2.7473,-2.7451,-2.7452,-2.7438,-2.7458,-2.7474,-2.7471,-2.7475,-2.7456,-2.7524,-2.7531,-2.7537,-2.7558,-2.7567,-2.7462,-2.7461,-2.7461,-2.7461,0,-2.7615,-2.7621,-2.7638,-2.7622,-2.762,-2.7635,-2.7602,-2.7604,-2.7581,-2.7561,-2.7575,-2.7556,-2.755,-2.7553,-2.753,-2.757,-2.7558,-2.7531,-2.7493,-2.7552,-2.7571,-2.7579,-2.7467,-2.7466,-2.7465,-2.7464,0,0,-2.7724,-2.7687,-2.7695,-2.7687,-2.7663,-2.7667,-2.768,-2.7673,-2.7676,-2.7666,-2.7675,-2.7677,-2.7652,-2.7646,-2.7622,-2.7635,-2.7686,-2.7606,-2.7605,-2.7622,-2.7729,-2.775,-2.776,-2.7667,-2.7668,-2.767,-2.7731,0,-2.7787,-2.7807,-2.7775,-2.7802,-2.7807,-2.7763,-2.7774,-2.7761,-2.7743,-2.7744,-2.7723,-2.7726,-2.7691,-2.7688,-2.7699,-2.7678,-2.7708,-2.7673,-2.7676,-2.7677,-2.7682,-2.777,-2.7793,-2.7851,-2.7738,-2.7739,-2.774,0,-2.7864,-2.7857,-2.7885,-2.7859,-2.786,-2.787,-2.7862,-2.7863,-2.7848,-2.7833,-2.7827,-2.7797,-2.7808,-2.7771,-2.7786,-2.7763,-2.7762,-2.7752,-2.7753,-2.7753,-2.7712,-2.7772,-2.7869,-2.7878,-2.7752,-2.7751,-2.775,0,-2.7941,-2.7938,-2.7954,-2.7949,-2.7919,-2.7928,-2.7916,-2.7898,-2.7896,-2.7888,-2.7887,-2.7881,-2.7878,-2.7874,-2.7843,-2.7819,-2.7861,-2.7822,-2.785,-2.7851,-2.7861,-2.7861,-2.7959,-2.786,-2.786,-2.786,-2.786,0,-2.8016,-2.8034,-2.7988,-2.7999,-2.8018,-2.7981,-2.8001,-2.7985,-2.7969,-2.7975,-2.7937,-2.7943,-2.7903,-2.7905,-2.7881,-2.7896,-2.7895,-2.7884,-2.7878,-2.7888,-2.7889,-2.7887,-2.7882,-2.7862,-2.7862,-2.7861,-2.7861,0,-2.8105,-2.8075,-2.809,-2.806,-2.8053,-2.8069,-2.8044,-2.8052,-2.8031,-2.8039,-2.8038,-2.8005,-2.8006,-2.7975,-2.7969,-2.7953,-2.7979,-2.7965,-2.7984,-2.798,-2.801,-2.8007,-2.811,-2.8122,-2.8015,-2.8017,-2.8017,0,-2.8155,-2.8168,-2.814,-2.8141,-2.8131,-2.8133,-2.8131,-2.8094,-2.8094,-2.8076,-2.8086,-2.8083,-2.8079,-2.8082,-2.8057,-2.8053,-2.8038,-2.8075,-2.8037,-2.8047,-2.8039,-2.8039,-2.804,-2.8083,-2.8084,-2.8085,-2.8086,0,-2.8246,-2.823,-2.8228,-2.8221,-2.8219,-2.8212,-2.8202,-2.8205,-2.8165,-2.8166,-2.8166,-2.8163,-2.8156,-2.8154,-2.8145,-2.8132,-2.8103,-2.8098,-2.8104,-2.8115,-2.8126,-2.812,-2.8006,-2.8096,-2.8095,-2.8094,-2.8094,-2.8093,-2.8317,-2.8326,-2.8308,-2.8307,-2.8295,-2.8287,-2.8293,-2.8272,-2.8271,-2.8263,-2.8242,-2.8245,-2.8228,-2.8213,-2.8203,-2.8205,-2.8187,-2.8196,-2.8198,-2.8201,-2.8207,-2.8125,-2.8203,-2.8203,-2.8202,-2.8202,-2.8202,0,-2.8406,-2.8392,-2.8391,-2.8378,-2.8378,-2.8349,-2.8337,-2.8338,-2.8341,-2.8328,-2.8324,-2.8324,-2.8321,-2.8296,-2.8291,-2.8297,-2.8283,-2.8297,-2.8296,-2.8294,-2.8223,-2.8218,-2.8308,-2.8308,-2.8308,-2.8308,-2.8308,-2.8308,-2.8452,-2.8467,-2.8449,-2.8458,-2.8443,-2.8446,-2.8441,-2.8433,-2.8422,-2.8424,-2.8421,-2.8405,-2.8387,-2.8379,-2.8376,-2.8368,-2.8368,-2.8386,-2.8375,-2.8309,-2.8299,-2.8289,-2.8284,-2.8387,-2.8387,-2.8445,-2.8446,-2.8446]}]]